Location: ??????????
(54.4061°N, 22.6114°E)
Time: 12:38:06
(UTC+00:00)

Cosmos 1725 Rocket - Pass Details

Date: 23 October 2019
Orbit: 963 x 990 km, 82.9° (Epoch: 19 November)

Event Time Altitude Azimuth Distance (km) Brightness Sun altitude
Rises 16:45:20 0° 350° (N) 3,694 7.2 -13.9°
Reaches altitude 10° 16:48:03 10° 358° (N) 2,746 6.4 -14.3°
Maximum altitude 16:53:56 40° 67° (ENE) 1,421 4.4 -15.1°
Enters shadow 16:59:06 13° 133° (SE) 2,508 5.7 -15.9°
